Погода в Котово

Россия / Новгородская область     58°29′15″N   33°28′26″E
темп.,
°C
ветер,
м/с
пор.,
м/с
влажн.,
%
обл.,
%
осадки,
мм/ч
давл.,
гПа
погр.,
м
10 апреля, сб
сб1000:00+4ююз61464100 0.0 10151079
03:00+4ююз61367100 0.0 10151081
06:00+4ююз61371100 0.0 1015951
09:00+6ююз61364100 0.0 10151188
12:00+9ююз71353100 0.0 10151820
15:00+10ююз71351100 0.0 10141915
18:00+9ююз71359100 0.2 10141702
21:00+4сз489375 2.6 1017508
11 апреля, вс
вс1100:00+3зюз388799 0.9 1020650
03:00+2юз269393 0.9 1022213
06:000юз22968 0.0 102422
09:00+5юз23705 0.0 1026492
12:00+8юз23435 0.0 10271336
15:00+10юз2340100 0.0 10281512
18:00+9ююз125581 0.0 1028261
21:00+7ююв127843 0.0 102931
12 апреля, пн
пн1200:00+5юв268745 0.0 1030151
03:00+6вюв2393100 0.0 103099
06:00+5юв22945 0.0 103040
09:00+10ююв35755 0.0 1029281
12:00+15ю46515 0.0 10281005
15:00+17ююв46445 0.0 10271464
18:00+15юв47515 0.0 1026626
21:00+10юв31172100 0.0 1026248
13 апреля, вт
вт1300:00+8юв31077100 0.0 1024315
03:00+9ююв3879100 0.0 1023458
06:00+8ююв2795100 0.1 1022292
09:00+9ююв3689100 0.3 1022322
12:00+10ю3789100 0.2 1022463
15:00+12ююз258184 0.2 1021628
18:00+11ю1183100 0.1 102111
21:00+10юв239381 0.1 102163
14 апреля, ср
ср1400:00+9вюв2396100 0.0 102179
03:00+8юв259592 0.1 1020126
06:00+8юв31097100 0.6 1019283
09:00+11юв31187100 0.9 1018506
12:00+13ююв31080100 0.0 1017598
15:00+14ю4872100 0.9 1015884
18:00+15ю4106694 0.1 10141097
21:00+11ююв2486100 0.1 101480